User: anonymous   Login
Location: Stockholm
(59.3330°N, 18.0500°E)
Time: 12:14:35
(UTC+02:00)
Language:

AO-85 - Orbit

View from above orbital plane
View from above orbital plane
View from above satellite
View from above satellite

Ground track
Ground track

The orbit data is extracted from the following two-line orbital elements,

1 40967U 15058D   24205.62155207  .00006104  00000-0  56421-3 0  9998
2 40967  64.7769 263.7640 0191493 292.9803  65.1203 14.82529158 10390
Epoch (UTC): 23 July 2024 14:55:02
Eccentricity: 0.0191493
inclination: 64.7769°
perigee height: 487 km
apogee height: 755 km
right ascension of ascending node: 263.7640°
argument of perigee: 292.9803°
revolutions per day: 14.82529158
mean anomaly at epoch: 65.1203°
orbit number at epoch: 1039

The dashed part of the orbit path shows where the satellite is in the earth's shadow,  

DLR